Weather History for Lincoln, NE

Change the Weather History Date:

Thursday, September 20, 2012

  Actual Average Record
Temperature  
Mean Temperature 61 °F 64 °F  
Max Temperature 77 °F 77 °F 95 °F (1940)
Min Temperature 44 °F 51 °F 31 °F (1918)
Degree Days  
Heating Degree Days 4 4  
Month to date heating degree days 37 39  
Since 1 July heating degree days 44 45  
Cooling Degree Days 0 3  
Month to date cooling degree days 97 102  
Year to date cooling degree days 1489 1137  
Growing Degree Days 10 (Base 50)    
Moisture  
Dew Point 35 °F    
Average Humidity 50    
Maximum Humidity 83    
Minimum Humidity 17    
Precipitation  
Precipitation 0.00 in 0.10 in 2.61 in (1955)
Month to date precipitation 1.73 2.13  
Year to date precipitation 15.57 23.71  
Snow  
Snow 0.00 in 0.00 in - ()
Month to date snowfall 0.0 0.0  
Since 1 July snowfall 0.0 0.0  
Snow Depth 0.00 in    
Sea Level Pressure  
Sea Level Pressure 30.02 in    
Wind  
Wind Speed 3 mph (WSW)    
Max Wind Speed 13 mph    
Max Gust Speed 17 mph    
Visibility 10 miles    
Events      
T = Trace of Precipitation, MM = Missing Value Source: NWS Daily Summary

Daily Weather History Graph

Daily Weather History Graph

Search for Another Location

Airport:

Trip Planner

Search our weather history database for the weather conditions in past years. The results will help you decide how hot, cold, wet, or windy it might be!

Date:

Astronomy

Sep. 20, 2012 Rise Set
Actual Time 7:13 AM CDT 7:26 PM CDT
Civil Twilight 6:45 AM CDT 7:54 PM CDT
Nautical Twilight 6:13 AM CDT 8:26 PM CDT
Astronomical Twilight 5:40 AM CDT 8:58 PM CDT
Moon 12:34 PM CDT (9/20) 10:27 PM CDT (9/20)
Length of Visible Light 13h 08m
Length of Day
12h 13m
Waxing Crescent, 27% of the Moon is Illuminated
Sep 20
Waxing Crescent
Sep 22
First Quarter
Sep 29
Full
Oct 8
Last Quarter
Oct 15
New

Hourly Weather History & Observations

Time (CDT) Temp. Windchill Dew Point Humidity Pressure Visibility Wind Dir Wind Speed Gust Speed Precip Events Conditions
12:54 AM 50.0 °F - 37.0 °F 61% 30.01 in 10.0 mi NNW 3.5 mph - N/A   Clear
1:54 AM 46.9 °F - 37.0 °F 68% 30.01 in 10.0 mi NNW 3.5 mph - N/A   Clear
2:54 AM 44.1 °F 42.5 °F 37.0 °F 76% 30.02 in 10.0 mi North 3.5 mph - N/A   Clear
3:54 AM 46.0 °F - 37.0 °F 71% 30.02 in 10.0 mi Calm Calm - N/A   Clear
4:54 AM 46.4 °F - 37.4 °F 71% 30.04 in 10.0 mi Calm Calm - N/A   Clear
5:54 AM 46.0 °F - 39.0 °F 76% 30.04 in 10.0 mi Calm Calm - N/A   Clear
6:54 AM 45.0 °F - 39.0 °F 80% 30.04 in 10.0 mi Calm Calm - N/A   Clear
7:54 AM 46.0 °F - 41.0 °F 83% 30.06 in 10.0 mi Calm Calm - N/A   Clear
8:54 AM 51.1 °F - 41.0 °F 68% 30.08 in 10.0 mi Calm Calm - N/A   Clear
9:54 AM 59.0 °F - 39.9 °F 49% 30.09 in 10.0 mi Calm Calm - N/A   Clear
10:54 AM 64.0 °F - 37.9 °F 38% 30.09 in 10.0 mi Calm Calm - N/A   Clear
11:54 AM 69.1 °F - 30.0 °F 23% 30.09 in 10.0 mi WSW 4.6 mph - N/A   Clear
12:54 PM 72.0 °F - 26.1 °F 18% 30.07 in 10.0 mi WNW 6.9 mph - N/A   Clear
1:54 PM 72.0 °F - 26.1 °F 18% 30.04 in 10.0 mi WSW 3.5 mph - N/A   Clear
2:54 PM 73.0 °F - 27.0 °F 18% 30.01 in 10.0 mi SW 6.9 mph - N/A   Clear
3:54 PM 75.9 °F - 28.0 °F 17% 29.99 in 10.0 mi SW 4.6 mph - N/A   Clear
4:54 PM 75.9 °F - 28.9 °F 18% 29.97 in 10.0 mi WSW 5.8 mph - N/A   Clear
5:54 PM 75.9 °F - 30.0 °F 19% 29.96 in 10.0 mi WSW 10.4 mph - N/A   Clear
6:54 PM 73.0 °F - 32.0 °F 22% 29.96 in 10.0 mi SSW 5.8 mph - N/A   Clear
7:54 PM 66.9 °F - 37.0 °F 33% 29.96 in 10.0 mi SSW 6.9 mph - N/A   Clear
8:54 PM 63.0 °F - 37.9 °F 40% 29.96 in 10.0 mi South 9.2 mph - N/A   Clear
9:54 PM 61.0 °F - 37.9 °F 42% 29.96 in 10.0 mi SSE 4.6 mph - N/A   Clear
10:54 PM 62.1 °F - 37.9 °F 41% 29.95 in 10.0 mi Calm Calm - N/A   Overcast
11:54 PM 61.0 °F - 37.9 °F 42% 29.93 in 10.0 mi Calm Calm - N/A   Clear